User: anonymous   Login
Location: Unspecified
(0.0000°N, 0.0000°E)
Time: 00:59:28
(UTC+01:00)
Language:

Cosmos 2263 Rocket - Orbit

View from above orbital plane
View from above orbital plane
View from above satellite
View from above satellite

Ground track
Ground track

The orbit data is extracted from the following two-line orbital elements,

1 22803U 93059B   14327.21468227 -.00000239  00000-0 -95667-4 0  4268
2 22803 070.9919 063.7427 0017307 004.1379 355.9885 14.16687803 95576
Epoch (UTC): 23 November 2014 05:09:08
Eccentricity: 0.0017307
inclination: 70.9919°
perigee height: 824 km
apogee height: 849 km
right ascension of ascending node: 63.7427°
argument of perigee: 4.1379°
revolutions per day: 14.16687803
mean anomaly at epoch: 355.9885°
orbit number at epoch: 9557

The dashed part of the orbit path shows where the satellite is in the earth's shadow,  

DLR